Location: Wildcat Hills Observatory
(41.6350°N, 103.6812°W)
Time: 16:07:28
(UTC-06:00)

USA 238 - Pass Details

Date: 23 June 2018
Orbit: 1058 x 1155 km, 63.4° (Epoch: 18 September)

Event Time Altitude Azimuth Distance (km) Brightness Sun altitude
Rises 21:49:48 0° 324° (NW) 3,941 8.7 -11.8°
Reaches altitude 10° 21:52:27 10° 325° (NW) 2,994 7.5 -12.2°
Maximum altitude 21:59:38 90° 63° (ENE) 1,140 3.8 -13.1°
Enters shadow 22:05:19 18° 147° (SSE) 2,480 5.0 -13.8°
